Creek Data

    Home     View Charts     View Raw Data     Messages

ID Distance Battery Voltage Battery Current Internal Temp Internal Humidity External Temp Solar Input rssi snr Time Stamp Record
36182 15.1 3.96 -5 49 40 49 0 -83 8 03/28/2025 05:30 AM 18027
36181 0.0 3.97 -5 48 40 50 0.1 -86 8 03/28/2025 05:15 AM 18026
36180 0.0 3.97 -5 47 41 49 0 -87 6 03/28/2025 05:00 AM 18025
36179 15.0 3.97 -5 47 41 48 0 -87 6 03/28/2025 04:45 AM 18024
36178 14.9 4.02 -5 46 41 48 0 -87 6 03/28/2025 04:30 AM 18023
36177 0.0 3.97 -5 45 41 47 0 -87 6 03/28/2025 04:15 AM 18022
36176 0.0 3.97 -5 45 41 47 0 -86 8 03/28/2025 04:00 AM 18021
36175 15.0 3.97 -5 46 41 46 0 -87 7 03/28/2025 03:45 AM 18020
36174 15.2 3.97 -5 46 40 47 0 -88 7 03/28/2025 03:30 AM 18019
36173 15.0 3.97 -5 47 40 48 0 -87 7 03/28/2025 03:15 AM 18018
36172 14.9 4.03 -5 47 40 49 0 -88 6 03/28/2025 03:00 AM 18017
36171 15.0 3.97 -5 45 41 48 0 -86 8 03/28/2025 02:45 AM 18016
36170 15.0 3.97 -5 44 41 46 0 -85 8 03/28/2025 02:30 AM 18015
36169 15.0 4.03 -5 45 41 45 0 -88 8 03/28/2025 02:15 AM 18014
36168 15.0 3.97 -5 45 41 46 0 -87 7 03/28/2025 02:00 AM 18013
36167 15.0 3.98 -5 46 41 48 0 -89 7 03/28/2025 01:45 AM 18012
36166 15.0 3.98 -5 45 41 46 0 -90 7 03/28/2025 01:30 AM 18011
36165 15.1 3.98 -5 46 40 48 0 -90 8 03/28/2025 01:15 AM 18010
36164 0.0 4.03 -5 47 41 49 0 -90 7 03/28/2025 01:00 AM 18009
36163 0.0 3.98 -5 46 41 48 0 -88 8 03/28/2025 12:45 AM 18008
36162 15.0 3.98 -5 46 41 47 0.1 -91 8 03/28/2025 12:30 AM 18007
36161 15.0 4.03 -5 46 41 48 0 -89 6 03/28/2025 12:15 AM 18006
36160 15.0 3.98 -5 46 41 48 0 -90 7 03/28/2025 12:00 AM 18005
36159 0.0 3.98 -5 46 42 46 0 -92 7 03/27/2025 11:30 PM 18003
36158 0.0 3.98 -5 47 42 48 0 -90 6 03/27/2025 11:15 PM 18002